| time (UTC) | temp F | wind direction | speed knots | gust knots | rain 1hr in | rain 24hr in | rain mn in | humidity % | barometer mb |
| 20260508235951 | 73 | 127 | 1.7 | 6.1 | 0.00 | 0.00 | 0.00 | 67 | 1007.2 |
| 20260508235424 | 73 | 110 | 1.7 | 5.2 | 0.00 | 0.00 | 0.00 | 67 | 1007.2 |
| 20260508234922 | 73 | 143 | 1.7 | 4.3 | 0.00 | 0.00 | 0.00 | 66 | 1007.2 |
| 20260508234354 | 74 | 185 | 0.9 | 4.3 | 0.00 | 0.00 | 0.00 | 65 | 1007.3 |
| 20260508233852 | 74 | 113 | 1.7 | 6.1 | 0.00 | 0.00 | 0.00 | 65 | 1007.3 |
| 20260508233350 | 74 | 146 | 2.6 | 7.0 | 0.00 | 0.00 | 0.00 | 64 | 1007.3 |
| 20260508232827 | 74 | 80 | 1.7 | 7.0 | 0.00 | 0.00 | 0.00 | 64 | 1007.3 |
| 20260508232314 | 75 | 110 | 1.7 | 7.0 | 0.00 | 0.00 | 0.00 | 64 | 1007.4 |
| 20260508231814 | 75 | 164 | 1.7 | 5.2 | 0.00 | 0.00 | 0.00 | 63 | 1007.4 |
| 20260508231507 | 75 | 181 | 2.6 | 7.0 | 0.00 | 0.00 | 0.00 | 65 | 1007.4 |
| 20260508230746 | 74 | 226 | 3.5 | 7.0 | 0.00 | 0.00 | 0.00 | 64 | 1007.4 |
| 20260508230242 | 74 | 149 | 3.5 | 7.8 | 0.00 | 0.00 | 0.00 | 64 | 1007.4 |
| 20260508225721 | 74 | 240 | 3.5 | 7.8 | 0.00 | 0.00 | 0.00 | 65 | 1007.5 |
| 20260508225224 | 74 | 229 | 3.5 | 7.8 | 0.00 | 0.00 | 0.00 | 64 | 1007.5 |
| 20260508224658 | 75 | 193 | 4.3 | 8.7 | 0.00 | 0.00 | 0.00 | 63 | 1007.5 |
| 20260508224135 | 75 | 210 | 4.3 | 10.4 | 0.00 | 0.00 | 0.00 | 63 | 1007.4 |
| 20260508223609 | 75 | 211 | 4.3 | 10.4 | 0.00 | 0.00 | 0.00 | 62 | 1007.3 |
| 20260508223339 | 76 | 227 | 4.3 | 7.8 | 0.00 | 0.00 | 0.00 | 63 | 1007.3 |
| 20260508222838 | 76 | 234 | 3.5 | 11.3 | 0.00 | 0.00 | 0.00 | 62 | 1007.3 |
| 20260508222053 | 77 | 233 | 3.5 | 8.7 | 0.00 | 0.00 | 0.00 | 64 | 1007.3 |
| 20260508221552 | 76 | 143 | 4.3 | 8.7 | 0.00 | 0.00 | 0.00 | 63 | 1007.2 |
| 20260508221317 | 76 | 238 | 4.3 | 8.7 | 0.00 | 0.00 | 0.00 | 63 | 1007.3 |
| 20260508220536 | 76 | 155 | 3.5 | 8.7 | 0.00 | 0.00 | 0.00 | 64 | 1007.2 |
| 20260508220035 | 76 | 203 | 3.5 | 7.0 | 0.00 | 0.00 | 0.00 | 64 | 1007.2 |
| 20260508215521 | 76 | 212 | 3.5 | 7.0 | 0.00 | 0.00 | 0.00 | 65 | 1007.2 |
| 20260508215023 | 76 | 217 | 3.5 | 6.1 | 0.00 | 0.00 | 0.00 | 65 | 1007.2 |
| 20260508214459 | 76 | 226 | 3.5 | 7.8 | 0.00 | 0.00 | 0.00 | 64 | 1007.1 |
| 20260508213935 | 76 | 153 | 3.5 | 7.8 | 0.00 | 0.00 | 0.00 | 65 | 1007.1 |
| 20260508213411 | 76 | 128 | 2.6 | 7.0 | 0.00 | 0.00 | 0.00 | 64 | 1007.0 |
| 20260508213334 | 76 | 207 | 2.6 | 7.0 | 0.00 | 0.00 | 0.00 | 65 | 1007.0 |
| 20260508212350 | 75 | 179 | 2.6 | 7.0 | 0.00 | 0.00 | 0.00 | 69 | 1007.1 |
| 20260508212116 | 73 | 106 | 2.6 | 6.1 | 0.00 | 0.00 | 0.00 | 71 | 1007.5 |
| 20260508211328 | 73 | 124 | 1.7 | 5.2 | 0.00 | 0.00 | 0.00 | 68 | 1008.0 |
| 20260508210800 | 73 | 133 | 1.7 | 4.3 | 0.00 | 0.00 | 0.00 | 68 | 1008.1 |
| 20260508210303 | 73 | 220 | 1.7 | 6.1 | 0.00 | 0.00 | 0.00 | 68 | 1008.3 |
| 20260508205750 | 73 | 183 | 1.7 | 6.1 | 0.00 | 0.00 | 0.00 | 68 | 1008.6 |
| 20260508205509 | 73 | 122 | 2.6 | 6.1 | 0.00 | 0.00 | 0.00 | 68 | 1008.7 |
| 20260508205012 | 74 | 220 | 2.6 | 6.1 | 0.00 | 0.00 | 0.00 | 65 | 1008.9 |
| 20260508204227 | 74 | 192 | 2.6 | 6.1 | 0.00 | 0.00 | 0.00 | 64 | 1009.1 |
| 20260508203703 | 74 | 153 | 2.6 | 6.1 | 0.00 | 0.00 | 0.00 | 63 | 1009.2 |
| 20260508203143 | 74 | 149 | 1.7 | 6.1 | 0.00 | 0.00 | 0.00 | 63 | 1009.2 |
| 20260508202616 | 74 | 214 | 1.7 | 6.1 | 0.00 | 0.00 | 0.00 | 63 | 1009.3 |
| 20260508202117 | 74 | 231 | 1.7 | 6.1 | 0.00 | 0.00 | 0.00 | 62 | 1009.2 |
| 20260508201548 | 75 | 225 | 1.7 | 6.1 | 0.00 | 0.00 | 0.00 | 61 | 1009.2 |
| 20260508201048 | 75 | 225 | 2.6 | 7.0 | 0.00 | 0.00 | 0.00 | 62 | 1009.2 |
| 20260508200547 | 75 | 214 | 3.5 | 7.0 | 0.00 | 0.00 | 0.00 | 61 | 1009.2 |
| 20260508200044 | 76 | 183 | 2.6 | 7.8 | 0.00 | 0.00 | 0.00 | 60 | 1009.1 |
| 20260508195520 | 76 | 194 | 3.5 | 7.8 | 0.00 | 0.00 | 0.00 | 59 | 1009.2 |
| 20260508195235 | 76 | 224 | 2.6 | 7.8 | 0.00 | 0.00 | 0.00 | 58 | 1009.2 |
| 20260508194455 | 77 | 143 | 2.6 | 7.8 | 0.00 | 0.00 | 0.00 | 59 | 1009.3 |
| 20260508193950 | 77 | 237 | 4.3 | 10.4 | 0.00 | 0.00 | 0.00 | 60 | 1009.3 |
| 20260508193446 | 77 | 139 | 4.3 | 10.4 | 0.00 | 0.00 | 0.00 | 58 | 1009.3 |
| 20260508192943 | 77 | 134 | 4.3 | 11.3 | 0.00 | 0.00 | 0.00 | 59 | 1009.3 |
| 20260508192923 | 77 | 154 | 4.3 | 11.3 | 0.00 | 0.00 | 0.00 | 58 | 1009.3 |
| 20260508191916 | 77 | 235 | 4.3 | 8.7 | 0.00 | 0.00 | 0.00 | 59 | 1009.3 |
| 20260508191347 | 77 | 196 | 4.3 | 9.6 | 0.00 | 0.00 | 0.00 | 58 | 1009.4 |
| 20260508190849 | 77 | 157 | 3.5 | 9.6 | 0.00 | 0.00 | 0.00 | 57 | 1009.5 |
| 20260508190322 | 77 | 129 | 2.6 | 7.8 | 0.00 | 0.00 | 0.00 | 57 | 1009.5 |
| 20260508190015 | 78 | 108 | 2.6 | 7.8 | 0.00 | 0.00 | 0.00 | 60 | 1009.6 |
| 20260508185249 | 77 | 129 | 3.5 | 7.8 | 0.00 | 0.00 | 0.00 | 59 | 1009.6 |
| 20260508184747 | 77 | 117 | 3.5 | 8.7 | 0.00 | 0.00 | 0.00 | 58 | 1009.7 |
| 20260508184245 | 77 | 98 | 3.5 | 8.7 | 0.00 | 0.00 | 0.00 | 57 | 1009.8 |
| 20260508183742 | 77 | 169 | 3.5 | 7.8 | 0.00 | 0.00 | 0.00 | 60 | 1009.6 |
| 20260508183238 | 77 | 150 | 2.6 | 7.8 | 0.00 | 0.00 | 0.00 | 56 | 1009.9 |
| 20260508182736 | 77 | 90 | 2.6 | 6.1 | 0.00 | 0.00 | 0.00 | 57 | 1010.0 |
| 20260508182233 | 77 | 124 | 1.7 | 7.0 | 0.00 | 0.00 | 0.00 | 56 | 1010.1 |
| 20260508181731 | 77 | 162 | 1.7 | 6.1 | 0.00 | 0.00 | 0.00 | 60 | 1010.1 |
| 20260508181229 | 77 | 122 | 2.6 | 5.2 | 0.00 | 0.00 | 0.00 | 60 | 1010.2 |
| 20260508180706 | 77 | 152 | 1.7 | 7.0 | 0.00 | 0.00 | 0.00 | 56 | 1010.3 |
| 20260508180137 | 76 | 90 | 2.6 | 7.8 | 0.00 | 0.00 | 0.00 | 59 | 1010.4 |
| 20260508175611 | 76 | 223 | 3.5 | 7.8 | 0.00 | 0.00 | 0.00 | 57 | 1010.5 |
| 20260508175047 | 76 | 153 | 3.5 | 9.6 | 0.00 | 0.00 | 0.00 | 59 | 1010.7 |
| 20260508174519 | 76 | 119 | 2.6 | 9.6 | 0.00 | 0.00 | 0.00 | 57 | 1010.7 |
| 20260508173951 | 76 | 257 | 3.5 | 7.8 | 0.00 | 0.00 | 0.00 | 61 | 1010.7 |
| 20260508173447 | 75 | 123 | 2.6 | 7.8 | 0.00 | 0.00 | 0.00 | 57 | 1010.8 |
| 20260508172918 | 75 | 214 | 1.7 | 7.8 | 0.00 | 0.00 | 0.00 | 60 | 1010.8 |
| 20260508172419 | 75 | 150 | 1.7 | 7.0 | 0.00 | 0.00 | 0.00 | 62 | 1010.9 |
| 20260508171919 | 74 | 159 | 2.6 | 7.0 | 0.00 | 0.00 | 0.00 | 59 | 1011.0 |
| 20260508171354 | 73 | 191 | 2.6 | 7.0 | 0.00 | 0.00 | 0.00 | 61 | 1011.2 |
| 20260508170825 | 73 | 120 | 2.6 | 6.1 | 0.00 | 0.00 | 0.00 | 62 | 1011.4 |
| 20260508170321 | 73 | 116 | 2.6 | 6.1 | 0.00 | 0.00 | 0.00 | 61 | 1011.6 |
| 20260508170019 | 73 | 124 | 2.6 | 6.1 | 0.00 | 0.00 | 0.00 | 62 | 1011.7 |
| 20260508165257 | 73 | 104 | 2.6 | 6.1 | 0.00 | 0.00 | 0.00 | 61 | 1012.0 |
| 20260508164952 | 72 | 143 | 2.6 | 7.0 | 0.00 | 0.00 | 0.00 | 62 | 1012.1 |
| 20260508164446 | 72 | 114 | 1.7 | 7.0 | 0.00 | 0.00 | 0.00 | 62 | 1012.1 |
| 20260508163657 | 72 | 113 | 1.7 | 7.0 | 0.00 | 0.00 | 0.00 | 64 | 1012.3 |
| 20260508163156 | 71 | 131 | 2.6 | 7.0 | 0.00 | 0.00 | 0.00 | 63 | 1012.4 |
| 20260508162627 | 71 | 205 | 2.6 | 7.0 | 0.00 | 0.00 | 0.00 | 62 | 1012.5 |
| 20260508162126 | 71 | 216 | 2.6 | 7.0 | 0.00 | 0.00 | 0.00 | 61 | 1012.5 |
| 20260508161558 | 71 | 121 | 3.5 | 7.8 | 0.00 | 0.00 | 0.00 | 62 | 1012.5 |
| 20260508161056 | 71 | 221 | 2.6 | 7.8 | 0.00 | 0.00 | 0.00 | 61 | 1012.6 |
| 20260508160527 | 71 | 108 | 2.6 | 7.8 | 0.00 | 0.00 | 0.00 | 62 | 1012.6 |
| 20260508160026 | 70 | 97 | 2.6 | 7.8 | 0.00 | 0.00 | 0.00 | 61 | 1012.7 |
| 20260508155521 | 70 | 229 | 3.5 | 7.8 | 0.00 | 0.00 | 0.00 | 62 | 1012.8 |
| 20260508155021 | 70 | 252 | 3.5 | 7.8 | 0.00 | 0.00 | 0.00 | 63 | 1012.8 |
| 20260508154453 | 70 | 160 | 2.6 | 7.0 | 0.00 | 0.00 | 0.00 | 62 | 1012.8 |
| 20260508153948 | 69 | 129 | 1.7 | 7.0 | 0.00 | 0.00 | 0.00 | 63 | 1013.0 |
| 20260508153447 | 69 | 150 | 1.7 | 4.3 | 0.00 | 0.00 | 0.00 | 67 | 1012.9 |
| 20260508152919 | 68 | 124 | 1.7 | 4.3 | 0.00 | 0.00 | 0.00 | 66 | 1012.9 |
| 20260508152900 | 68 | 172 | 1.7 | 4.3 | 0.00 | 0.00 | 0.00 | 65 | 1013.1 |
| 20260508151849 | 68 | 126 | 2.6 | 6.1 | 0.00 | 0.00 | 0.00 | 65 | 1013.2 |
| 20260508151613 | 68 | 210 | 1.7 | 6.1 | 0.00 | 0.00 | 0.00 | 65 | 1013.1 |
| 20260508151102 | 68 | 158 | 2.6 | 6.1 | 0.00 | 0.00 | 0.00 | 66 | 1013.1 |
| 20260508150341 | 68 | 240 | 2.6 | 6.1 | 0.00 | 0.00 | 0.00 | 64 | 1013.0 |
| 20260508145813 | 68 | 162 | 1.7 | 5.2 | 0.00 | 0.00 | 0.00 | 64 | 1013.0 |
| 20260508145312 | 68 | 154 | 1.7 | 4.3 | 0.00 | 0.00 | 0.00 | 64 | 1012.9 |
| 20260508144746 | 68 | 176 | 2.6 | 4.3 | 0.00 | 0.00 | 0.00 | 65 | 1012.9 |
| 20260508144217 | 67 | 158 | 2.6 | 7.0 | 0.00 | 0.00 | 0.00 | 66 | 1012.9 |
| 20260508143715 | 67 | 161 | 2.6 | 7.0 | 0.00 | 0.00 | 0.00 | 65 | 1013.1 |
| 20260508143148 | 67 | 176 | 2.6 | 7.8 | 0.00 | 0.00 | 0.00 | 66 | 1013.1 |
| 20260508142906 | 67 | 113 | 2.6 | 7.8 | 0.00 | 0.00 | 0.00 | 65 | 1013.1 |
| 20260508142118 | 67 | 227 | 3.5 | 7.0 | 0.00 | 0.00 | 0.00 | 66 | 1013.2 |
| 20260508141844 | 67 | 153 | 3.5 | 7.8 | 0.00 | 0.00 | 0.00 | 66 | 1013.3 |
| 20260508141049 | 67 | 177 | 2.6 | 7.8 | 0.00 | 0.00 | 0.00 | 66 | 1013.4 |
| 20260508140548 | 67 | 172 | 1.7 | 6.1 | 0.00 | 0.00 | 0.00 | 68 | 1013.3 |
| 20260508140019 | 67 | 146 | 2.6 | 6.1 | 0.00 | 0.00 | 0.00 | 70 | 1013.3 |
| 20260508135518 | 66 | 124 | 2.6 | 6.1 | 0.00 | 0.00 | 0.00 | 68 | 1013.3 |
| 20260508135208 | 66 | 176 | 1.7 | 6.1 | 0.00 | 0.00 | 0.00 | 69 | 1013.3 |
| 20260508134449 | 66 | 132 | 0.9 | 4.3 | 0.00 | 0.00 | 0.00 | 72 | 1013.3 |
| 20260508134155 | 65 | 120 | 0.9 | 4.3 | 0.00 | 0.00 | 0.00 | 72 | 1013.1 |
| 20260508133425 | 64 | 134 | 0.9 | 3.5 | 0.00 | 0.00 | 0.00 | 77 | 1013.1 |
| 20260508132924 | 64 | 157 | 0.9 | 2.6 | 0.00 | 0.00 | 0.00 | 77 | 1013.2 |
| 20260508132356 | 63 | 153 | 0.9 | 2.6 | 0.00 | 0.00 | 0.00 | 77 | 1013.4 |
| 20260508131853 | 63 | 146 | 0.9 | 3.5 | 0.00 | 0.00 | 0.00 | 78 | 1013.5 |
| 20260508131614 | 62 | 133 | 0.9 | 3.5 | 0.00 | 0.00 | 0.00 | 79 | 1013.5 |
| 20260508130826 | 62 | 126 | 0.0 | 2.6 | 0.00 | 0.00 | 0.00 | 83 | 1013.3 |
| 20260508130258 | 62 | 136 | 0.0 | 1.7 | 0.00 | 0.00 | 0.00 | 84 | 1013.4 |
| 20260508125230 | 62 | 146 | 0.0 | 0.0 | 0.00 | 0.00 | 0.00 | 86 | 1013.4 |
| 20260508124701 | 61 | 145 | 0.0 | 0.0 | 0.00 | 0.00 | 0.00 | 86 | 1013.5 |
| 20260508124201 | 61 | 146 | 0.0 | 0.0 | 0.00 | 0.00 | 0.00 | 86 | 1013.6 |
| 20260508123631 | 61 | 145 | 0.0 | 0.0 | 0.00 | 0.00 | 0.00 | 86 | 1013.7 |
| 20260508123359 | 60 | 145 | 0.0 | 0.0 | 0.00 | 0.00 | 0.00 | 86 | 1013.7 |
| 20260508122604 | 60 | 146 | 0.0 | 0.0 | 0.00 | 0.00 | 0.00 | 86 | 1013.6 |
| 20260508122100 | 60 | 146 | 0.0 | 0.0 | 0.00 | 0.00 | 0.00 | 86 | 1013.5 |
| 20260508121533 | 60 | 145 | 0.0 | 0.0 | 0.00 | 0.00 | 0.00 | 86 | 1013.5 |
| 20260508121028 | 60 | 145 | 0.0 | 0.0 | 0.00 | 0.00 | 0.00 | 86 | 1013.5 |
| 20260508120526 | 60 | 145 | 0.0 | 0.0 | 0.00 | 0.00 | 0.00 | 86 | 1013.5 |
| 20260508115957 | 60 | 145 | 0.0 | 0.0 | 0.00 | 0.00 | 0.00 | 86 | 1013.6 |
| 20260508115456 | 60 | 146 | 0.0 | 0.0 | 0.00 | 0.00 | 0.00 | 86 | 1013.4 |
| 20260508115148 | 60 | 146 | 0.0 | 0.0 | 0.00 | 0.00 | 0.00 | 86 | 1013.6 |
| 20260508114423 | 60 | 146 | 0.0 | 1.7 | 0.00 | 0.00 | 0.00 | 86 | 1013.6 |
| 20260508113902 | 60 | 146 | 0.0 | 2.6 | 0.00 | 0.00 | 0.00 | 86 | 1013.4 |
| 20260508113333 | 60 | 117 | 0.0 | 2.6 | 0.00 | 0.00 | 0.00 | 86 | 1013.5 |
| 20260508112831 | 60 | 129 | 0.9 | 2.6 | 0.00 | 0.00 | 0.00 | 86 | 1013.6 |
| 20260508112527 | 60 | 120 | 0.9 | 2.6 | 0.00 | 0.00 | 0.00 | 86 | 1013.6 |
| 20260508111804 | 60 | 133 | 0.0 | 0.9 | 0.00 | 0.00 | 0.00 | 86 | 1013.8 |
| 20260508111307 | 60 | 339 | 0.0 | 0.0 | 0.00 | 0.00 | 0.00 | 85 | 1013.9 |
| 20260508110746 | 60 | 339 | 0.0 | 1.7 | 0.00 | 0.00 | 0.00 | 85 | 1014.1 |
| 20260508110726 | 60 | 339 | 0.9 | 3.5 | 0.00 | 0.00 | 0.00 | 85 | 1014.3 |
| 20260508105739 | 60 | 334 | 0.9 | 3.5 | 0.00 | 0.00 | 0.00 | 84 | 1014.2 |
| 20260508105219 | 60 | 319 | 0.0 | 0.0 | 0.00 | 0.00 | 0.00 | 84 | 1013.9 |
| 20260508104659 | 60 | 262 | 0.0 | 0.9 | 0.00 | 0.00 | 0.00 | 84 | 1013.5 |
| 20260508104159 | 60 | 262 | 0.0 | 1.7 | 0.00 | 0.00 | 0.00 | 83 | 1013.1 |
| 20260508103654 | 60 | 153 | 0.0 | 1.7 | 0.00 | 0.00 | 0.00 | 83 | 1012.9 |
| 20260508103129 | 60 | 259 | 0.0 | 0.9 | 0.00 | 0.00 | 0.00 | 83 | 1012.7 |
| 20260508102631 | 60 | 259 | 0.0 | 0.9 | 0.00 | 0.00 | 0.00 | 84 | 1012.6 |
| 20260508102128 | 60 | 259 | 0.0 | 1.7 | 0.00 | 0.00 | 0.00 | 84 | 1012.6 |
| 20260508101629 | 60 | 259 | 0.0 | 1.7 | 0.00 | 0.00 | 0.00 | 85 | 1012.5 |
| 20260508101333 | 60 | 237 | 0.0 | 1.7 | 0.00 | 0.00 | 0.00 | 86 | 1012.5 |
| 20260508100605 | 60 | 231 | 0.0 | 0.0 | 0.00 | 0.00 | 0.00 | 86 | 1012.5 |
| 20260508100049 | 60 | 231 | 0.0 | 0.0 | 0.00 | 0.00 | 0.00 | 85 | 1012.6 |
| 20260508095541 | 60 | 231 | 0.0 | 0.0 | 0.00 | 0.00 | 0.00 | 85 | 1012.5 |
| 20260508095306 | 60 | 231 | 0.0 | 0.0 | 0.00 | 0.00 | 0.00 | 85 | 1012.6 |
| 20260508094549 | 60 | 231 | 0.0 | 0.0 | 0.00 | 0.00 | 0.00 | 85 | 1012.7 |
| 20260508094538 | 60 | 231 | 0.0 | 0.0 | 0.00 | 0.00 | 0.00 | 85 | 1012.7 |
| 20260508094226 | 60 | 231 | 0.0 | 0.0 | 0.00 | 0.00 | 0.00 | 85 | 1012.8 |
| 20260508092948 | 60 | 231 | 0.0 | 0.0 | 0.00 | 0.00 | 0.00 | 85 | 1012.8 |
| 20260508092449 | 60 | 231 | 0.0 | 0.0 | 0.00 | 0.00 | 0.00 | 85 | 1012.8 |
| 20260508091933 | 60 | 231 | 0.0 | 0.0 | 0.00 | 0.00 | 0.00 | 85 | 1012.7 |
| 20260508091435 | 61 | 231 | 0.0 | 0.0 | 0.00 | 0.00 | 0.00 | 85 | 1012.8 |
| 20260508090907 | 60 | 231 | 0.0 | 1.7 | 0.00 | 0.00 | 0.00 | 85 | 1012.8 |
| 20260508090350 | 60 | 231 | 0.0 | 0.9 | 0.00 | 0.00 | 0.00 | 85 | 1012.9 |
| 20260508090330 | 60 | 121 | 0.9 | 4.3 | 0.00 | 0.00 | 0.00 | 85 | 1012.7 |
| 20260508085321 | 60 | 165 | 1.7 | 4.3 | 0.00 | 0.00 | 0.00 | 86 | 1012.7 |
| 20260508084821 | 60 | 131 | 1.7 | 4.3 | 0.00 | 0.00 | 0.00 | 86 | 1012.7 |
| 20260508084322 | 60 | 147 | 1.7 | 4.3 | 0.00 | 0.00 | 0.00 | 86 | 1012.7 |
| 20260508083801 | 60 | 141 | 0.9 | 3.5 | 0.00 | 0.00 | 0.00 | 86 | 1013.2 |
| 20260508083300 | 60 | 278 | 0.0 | 0.0 | 0.00 | 0.00 | 0.00 | 86 | 1013.7 |
| 20260508083025 | 60 | 278 | 0.0 | 0.0 | 0.00 | 0.00 | 0.00 | 84 | 1013.7 |
| 20260508082306 | 60 | 278 | 0.0 | 0.0 | 0.00 | 0.00 | 0.00 | 84 | 1013.8 |
| 20260508081737 | 60 | 278 | 0.0 | 0.0 | 0.00 | 0.00 | 0.00 | 84 | 1013.7 |
| 20260508081209 | 61 | 278 | 0.0 | 0.0 | 0.00 | 0.00 | 0.00 | 84 | 1014.1 |
| 20260508080639 | 61 | 278 | 0.0 | 0.0 | 0.00 | 0.00 | 0.00 | 83 | 1014.2 |
| 20260508080116 | 61 | 274 | 0.0 | 0.0 | 0.00 | 0.00 | 0.00 | 84 | 1014.2 |
| 20260508075612 | 60 | 274 | 0.0 | 0.9 | 0.00 | 0.00 | 0.00 | 83 | 1014.3 |
| 20260508075111 | 60 | 274 | 0.0 | 0.9 | 0.00 | 0.00 | 0.00 | 84 | 1014.4 |
| 20260508074550 | 60 | 150 | 0.0 | 0.0 | 0.00 | 0.00 | 0.00 | 84 | 1013.9 |
| 20260508074253 | 60 | 150 | 0.0 | 0.0 | 0.00 | 0.00 | 0.00 | 84 | 1013.6 |
| 20260508073524 | 60 | 150 | 0.0 | 0.0 | 0.00 | 0.00 | 0.00 | 84 | 1013.6 |
| 20260508073020 | 60 | 150 | 0.0 | 0.0 | 0.00 | 0.00 | 0.00 | 84 | 1013.7 |
| 20260508072514 | 59 | 150 | 0.0 | 0.0 | 0.00 | 0.00 | 0.00 | 85 | 1013.7 |
| 20260508071947 | 59 | 150 | 0.0 | 0.0 | 0.00 | 0.00 | 0.00 | 85 | 1013.7 |
| 20260508071422 | 59 | 150 | 0.0 | 0.0 | 0.00 | 0.00 | 0.00 | 85 | 1013.7 |
| 20260508070852 | 59 | 150 | 0.0 | 0.0 | 0.00 | 0.00 | 0.00 | 84 | 1013.8 |
| 20260508070351 | 59 | 150 | 0.0 | 0.0 | 0.00 | 0.00 | 0.00 | 84 | 1013.8 |
| 20260508065846 | 59 | 150 | 0.0 | 0.0 | 0.00 | 0.00 | 0.00 | 84 | 1013.8 |
| 20260508065339 | 59 | 150 | 0.0 | 0.0 | 0.00 | 0.00 | 0.00 | 84 | 1014.0 |
| 20260508065106 | 59 | 150 | 0.0 | 0.0 | 0.00 | 0.00 | 0.00 | 84 | 1014.2 |
| 20260508064313 | 59 | 150 | 0.0 | 0.0 | 0.00 | 0.00 | 0.00 | 84 | 1014.2 |
| 20260508064010 | 59 | 150 | 0.0 | 0.0 | 0.00 | 0.00 | 0.00 | 84 | 1014.2 |
| 20260508063238 | 59 | 150 | 0.0 | 0.0 | 0.00 | 0.00 | 0.00 | 84 | 1014.4 |
| 20260508062959 | 59 | 150 | 0.0 | 0.0 | 0.00 | 0.00 | 0.00 | 84 | 1014.4 |
| 20260508062236 | 59 | 150 | 0.0 | 0.0 | 0.00 | 0.00 | 0.00 | 84 | 1014.4 |
| 20260508061706 | 59 | 150 | 0.0 | 0.0 | 0.00 | 0.00 | 0.00 | 84 | 1014.4 |
| 20260508061205 | 59 | 150 | 0.0 | 0.0 | 0.00 | 0.00 | 0.00 | 84 | 1014.4 |
| 20260508060652 | 59 | 150 | 0.0 | 0.0 | 0.00 | 0.00 | 0.00 | 83 | 1014.4 |
| 20260508060409 | 59 | 150 | 0.0 | 0.0 | 0.00 | 0.00 | 0.00 | 83 | 1014.4 |
| 20260508055818 | 59 | 150 | 0.0 | 0.0 | 0.00 | 0.00 | 0.00 | 82 | 1014.6 |
| 20260508055658 | 59 | 150 | 0.0 | 0.0 | 0.00 | 0.00 | 0.00 | 83 | 1014.4 |
| 20260508054536 | 59 | 150 | 0.0 | 0.0 | 0.00 | 0.00 | 0.00 | 82 | 1014.5 |
| 20260508054008 | 59 | 150 | 0.0 | 0.0 | 0.00 | 0.00 | 0.00 | 82 | 1014.4 |
| 20260508053505 | 59 | 150 | 0.0 | 0.0 | 0.00 | 0.00 | 0.00 | 81 | 1014.5 |
| 20260508053001 | 59 | 150 | 0.0 | 0.0 | 0.00 | 0.00 | 0.00 | 82 | 1014.5 |
| 20260508052440 | 59 | 150 | 0.0 | 0.0 | 0.00 | 0.00 | 0.00 | 82 | 1014.5 |
| 20260508051902 | 59 | 150 | 0.0 | 0.0 | 0.00 | 0.00 | 0.00 | 81 | 1014.5 |
| 20260508051401 | 59 | 150 | 0.0 | 0.0 | 0.00 | 0.00 | 0.00 | 80 | 1014.4 |
| 20260508050835 | 59 | 150 | 0.0 | 0.0 | 0.00 | 0.00 | 0.00 | 81 | 1014.4 |
| 20260508050548 | 59 | 150 | 0.0 | 0.0 | 0.00 | 0.00 | 0.00 | 81 | 1014.4 |
| 20260508050051 | 59 | 150 | 0.0 | 0.0 | 0.00 | 0.00 | 0.00 | 81 | 1014.5 |
| 20260508045306 | 59 | 150 | 0.0 | 0.0 | 0.00 | 0.00 | 0.00 | 81 | 1014.5 |
| 20260508044736 | 59 | 150 | 0.0 | 0.0 | 0.00 | 0.00 | 0.00 | 82 | 1014.7 |
| 20260508044232 | 59 | 150 | 0.0 | 0.0 | 0.00 | 0.00 | 0.00 | 81 | 1014.4 |
| 20260508043731 | 59 | 150 | 0.0 | 0.0 | 0.00 | 0.00 | 0.00 | 80 | 1014.3 |
| 20260508043203 | 60 | 150 | 0.0 | 0.0 | 0.00 | 0.00 | 0.00 | 79 | 1014.3 |
| 20260508042658 | 60 | 150 | 0.0 | 0.0 | 0.00 | 0.00 | 0.00 | 79 | 1014.3 |
| 20260508042133 | 60 | 150 | 0.0 | 0.0 | 0.00 | 0.00 | 0.00 | 79 | 1014.4 |
| 20260508041630 | 60 | 150 | 0.0 | 0.0 | 0.00 | 0.00 | 0.00 | 79 | 1014.4 |
| 20260508041128 | 60 | 150 | 0.0 | 0.0 | 0.00 | 0.00 | 0.00 | 79 | 1014.4 |
| 20260508040616 | 60 | 150 | 0.0 | 0.0 | 0.00 | 0.00 | 0.00 | 79 | 1014.2 |
| 20260508040113 | 60 | 150 | 0.0 | 0.0 | 0.00 | 0.00 | 0.00 | 77 | 1014.2 |
| 20260508035549 | 61 | 150 | 0.0 | 0.0 | 0.00 | 0.00 | 0.00 | 77 | 1014.2 |
| 20260508035036 | 61 | 150 | 0.0 | 0.0 | 0.00 | 0.00 | 0.00 | 77 | 1014.1 |
| 20260508034806 | 61 | 150 | 0.0 | 0.0 | 0.00 | 0.00 | 0.00 | 77 | 1014.2 |
| 20260508034010 | 61 | 150 | 0.0 | 0.0 | 0.00 | 0.00 | 0.00 | 76 | 1014.2 |
| 20260508033510 | 61 | 150 | 0.0 | 0.0 | 0.00 | 0.00 | 0.00 | 76 | 1014.1 |
| 20260508033205 | 61 | 150 | 0.0 | 0.0 | 0.00 | 0.00 | 0.00 | 76 | 1014.1 |
| 20260508032441 | 61 | 150 | 0.0 | 0.0 | 0.00 | 0.00 | 0.00 | 75 | 1014.1 |
| 20260508032156 | 61 | 150 | 0.0 | 0.0 | 0.00 | 0.00 | 0.00 | 75 | 1014.3 |
| 20260508031917 | 61 | 150 | 0.0 | 0.0 | 0.00 | 0.00 | 0.00 | 76 | 1014.2 |
| 20260508030909 | 61 | 150 | 0.0 | 0.0 | 0.00 | 0.00 | 0.00 | 76 | 1014.2 |
| 20260508030400 | 61 | 150 | 0.0 | 0.0 | 0.00 | 0.00 | 0.00 | 75 | 1014.1 |
| 20260508025858 | 61 | 150 | 0.0 | 0.0 | 0.00 | 0.00 | 0.00 | 74 | 1014.1 |
| 20260508025346 | 61 | 150 | 0.0 | 0.0 | 0.00 | 0.00 | 0.00 | 75 | 1014.0 |
| 20260508024846 | 61 | 150 | 0.0 | 0.0 | 0.00 | 0.00 | 0.00 | 74 | 1014.0 |
| 20260508024323 | 61 | 150 | 0.0 | 0.0 | 0.00 | 0.00 | 0.00 | 73 | 1014.1 |
| 20260508023755 | 62 | 150 | 0.0 | 0.0 | 0.00 | 0.00 | 0.00 | 72 | 1014.1 |
| 20260508023255 | 62 | 150 | 0.0 | 0.0 | 0.00 | 0.00 | 0.00 | 72 | 1014.1 |
| 20260508022729 | 62 | 150 | 0.0 | 0.0 | 0.00 | 0.00 | 0.00 | 71 | 1013.9 |
| 20260508022200 | 62 | 150 | 0.0 | 0.0 | 0.00 | 0.00 | 0.00 | 71 | 1013.8 |
| 20260508021700 | 63 | 150 | 0.0 | 0.0 | 0.00 | 0.00 | 0.00 | 70 | 1013.8 |
| 20260508021356 | 63 | 150 | 0.0 | 0.0 | 0.00 | 0.00 | 0.00 | 70 | 1013.7 |
| 20260508020615 | 63 | 150 | 0.0 | 0.0 | 0.00 | 0.00 | 0.00 | 68 | 1013.6 |
| 20260508020110 | 63 | 150 | 0.0 | 0.0 | 0.00 | 0.00 | 0.00 | 67 | 1013.6 |
| 20260508015550 | 64 | 150 | 0.0 | 0.0 | 0.00 | 0.00 | 0.00 | 67 | 1013.6 |
| 20260508015030 | 64 | 150 | 0.0 | 0.0 | 0.00 | 0.00 | 0.00 | 67 | 1013.6 |
| 20260508014526 | 64 | 150 | 0.0 | 0.0 | 0.00 | 0.00 | 0.00 | 67 | 1013.7 |
| 20260508014023 | 64 | 150 | 0.0 | 0.0 | 0.00 | 0.00 | 0.00 | 65 | 1013.7 |
| 20260508013501 | 65 | 150 | 0.0 | 0.0 | 0.00 | 0.00 | 0.00 | 65 | 1013.7 |
| 20260508013005 | 65 | 150 | 0.0 | 0.0 | 0.00 | 0.00 | 0.00 | 64 | 1013.7 |
| 20260508012500 | 65 | 150 | 0.0 | 0.0 | 0.00 | 0.00 | 0.00 | 63 | 1013.6 |
| 20260508012002 | 66 | 150 | 0.0 | 0.0 | 0.00 | 0.00 | 0.00 | 62 | 1013.6 |
| 20260508011442 | 66 | 150 | 0.0 | 0.0 | 0.00 | 0.00 | 0.00 | 62 | 1013.6 |
| 20260508011139 | 66 | 150 | 0.0 | 1.7 | 0.00 | 0.00 | 0.00 | 61 | 1013.6 |
| 20260508010619 | 66 | 150 | 0.0 | 1.7 | 0.00 | 0.00 | 0.00 | 61 | 1013.6 |
| 20260508010117 | 66 | 224 | 0.0 | 2.6 | 0.00 | 0.00 | 0.00 | 61 | 1013.6 |
| 20260508005615 | 67 | 245 | 0.9 | 3.5 | 0.00 | 0.00 | 0.00 | 61 | 1013.6 |
| 20260508004836 | 67 | 234 | 0.9 | 3.5 | 0.00 | 0.00 | 0.00 | 61 | 1013.6 |
| 20260508004333 | 67 | 272 | 0.9 | 4.3 | 0.00 | 0.00 | 0.00 | 61 | 1013.7 |
| 20260508003833 | 67 | 235 | 0.9 | 4.3 | 0.00 | 0.00 | 0.00 | 60 | 1013.7 |
| 20260508003330 | 67 | 121 | 0.9 | 3.5 | 0.00 | 0.00 | 0.00 | 60 | 1013.6 |
| 20260508002813 | 67 | 195 | 0.9 | 5.2 | 0.00 | 0.00 | 0.00 | 60 | 1013.6 |
| 20260508002255 | 67 | 174 | 1.7 | 5.2 | 0.00 | 0.00 | 0.00 | 59 | 1013.7 |
| 20260508001736 | 67 | 236 | 1.7 | 5.2 | 0.00 | 0.00 | 0.00 | 58 | 1013.7 |
| 20260508001214 | 68 | 197 | 1.7 | 5.2 | 0.00 | 0.00 | 0.00 | 58 | 1013.7 |
| 20260508000649 | 68 | 110 | 1.7 | 5.2 | 0.00 | 0.00 | 0.00 | 58 | 1013.8 |
| 20260508000132 | 68 | 123 | 1.7 | 6.1 | 0.00 | 0.00 | 0.00 | 58 | 1013.8 |